RAISE 2 (49397 NORAD) Tracking and Keplerian Element Data

This shows tracking and keplerian element data for the satellite.

Feedback or suggestion? Click here.




ElementValue
Catalog49397
NameRAISE 2
Epoch Orbit2885
Epoch Day140.43494096
Epoch Year2022
RAAN199.3749
Inclination97.5325
Eccentricity0.0015024
Argument of Perigee353.8873
Mean Anonmoly6.2165
Mean Motion15.01086589
Decay Rate2.954E-05
L11 49397U 21102C 22140.43494096 .00002954 00000+0 23497-3 0 9993
L22 49397 97.5325 199.3749 0015024 353.8873 6.2165 15.01086589 28852

Live tracking and technical data element details for RAISE 2 (NORAD 49397). RAISE 2 can be tracked NOW for your location showing map with azimuth and elevation plus other details from your city location.

Track the satellite on the map from your city or location and see movement details for azimuth, elevation, latitude, longitude, range, height, and movement on the map or in text.







IsCatalogInMostPopularTable: catalog: 49397, numindb: 32
Update: records affected: 1



GetName: 49397 RAISE 2

Hit Count: updated at: Mon, 23 May 2022 21:09:46 GMT